Wind_Speed
21 22 22 23 23 23 24 24 23 23 23 23 23 23 22 21 20 19 18 17 16 16 16 16 16 16 16 15 14 13 12 10 10 10 10 10 9 9 8 8 8 7 7 8
24 23 23 24 25 25 25 25 25 25 25 24 24 24 23 23 22 21 20 19 18 18 18 17 17 17 16 15 14 14 13 12 11 11 12 12 11 10 9 10 9 9 9 9
25 25 25 26 26 26 26 25 26 27 26 26 26 25 24 24 24 23 22 22 21 20 19 18 18 17 17 16 15 15 14 14 14 13 13 12 12 11 11 11 10 10 9 10
26 26 26 26 26 25 25 26 27 28 27 27 27 26 26 25 25 25 23 22 21 21 21 20 19 19 18 17 16 15 14 14 14 14 13 13 13 13 12 11 11 11 11 11
26 26 26 26 26 26 26 26 26 27 27 28 28 28 27 26 26 25 24 23 22 21 21 22 21 20 19 18 18 17 17 17 16 16 15 14 14 14 14 14 13 13 13 13
26 26 27 27 27 27 27 27 27 27 27 29 28 28 27 28 27 25 25 24 23 23 23 23 22 22 21 20 19 19 19 18 18 17 16 16 16 16 16 16 15 15 14 14
26 27 27 27 27 28 27 26 25 26 27 28 28 29 29 28 28 27 26 26 25 25 25 24 24 23 23 22 22 21 20 19 19 18 18 17 17 16 17 17 17 16 16 16
25 25 27 27 27 28 27 26 25 25 25 26 29 30 30 28 28 27 26 27 26 26 25 25 25 24 24 23 23 21 19 20 20 19 19 18 18 18 18 18 18 18 18 17
24 25 26 26 27 28 28 28 26 27 26 27 28 31 30 29 28 28 27 27 26 26 27 26 25 25 25 23 23 22 21 22 22 21 20 20 20 20 20 20 20 19 19 18
24 25 25 26 26 28 28 28 28 27 27 27 27 29 29 28 28 28 27 27 27 27 27 27 26 26 26 25 25 24 24 24 23 22 22 22 22 22 22 22 21 21 20 20
24 24 25 25 25 26 27 27 28 28 28 27 26 26 28 28 28 28 26 27 27 28 27 27 26 27 27 27 26 24 25 25 25 24 23 23 23 22 22 22 22 22 21 21
23 23 23 24 25 26 26 27 28 29 29 29 26 26 28 27 27 26 26 26 27 27 28 28 28 29 28 28 27 26 26 26 26 24 23 23 24 23 22 22 22 22 22 22
22 23 22 22 23 25 26 27 28 28 29 29 27 27 27 26 26 26 25 26 26 27 28 29 29 29 29 28 27 27 27 27 27 25 25 25 25 24 24 23 23 24 24 24
21 22 22 22 23 25 26 26 26 27 28 28 27 27 27 25 25 25 25 25 26 27 28 29 29 29 29 28 28 27 28 28 28 27 26 27 26 26 25 24 24 24 25 25
20 22 22 22 23 24 25 25 26 27 28 28 28 27 26 25 26 26 26 26 26 27 28 28 29 30 29 29 29 29 29 29 29 29 28 28 27 27 26 25 25 25 25 25
20 21 22 23 23 24 25 25 26 27 28 27 26 27 25 25 25 25 26 26 26 27 28 28 29 30 30 30 30 30 29 29 29 29 29 29 28 28 27 26 25 25 25 24
20 20 21 21 23 24 26 24 25 26 26 26 26 26 25 25 24 25 26 26 26 27 28 29 29 29 30 30 29 30 29 29 29 29 29 29 29 28 27 26 26 25 25 23
19 19 20 20 21 23 24 23 24 25 24 25 25 24 24 24 24 24 25 26 27 27 28 28 28 28 28 28 29 30 29 29 29 29 29 29 29 29 28 27 26 25 25 25
19 19 19 20 21 22 22 22 23 23 23 23 24 25 25 24 24 24 25 26 26 27 27 27 28 28 28 27 28 29 29 29 28 28 29 29 29 28 28 27 26 26 26 26
20 20 20 20 20 21 21 21 22 22 24 23 23 23 23 23 23 23 23 24 25 25 26 26 27 27 27 27 27 28 28 28 28 28 28 29 28 28 27 26 26 27 27 26
20 19 19 19 19 21 21 21 23 23 23 23 23 23 23 22 22 23 23 24 25 25 25 26 26 27 27 27 28 28 29 29 29 29 29 29 29 28 27 27 27 26 26 26
19 19 19 19 19 20 21 21 22 23 23 23 23 22 22 22 22 23 24 24 25 25 25 25 26 26 27 27 28 28 29 30 30 30 30 30 29 28 27 27 26 26 26 27
18 18 18 18 18 19 19 19 20 21 22 22 22 22 22 22 22 22 23 24 24 24 25 25 26 26 27 27 27 28 28 29 29 29 29 29 28 27 27 27 26 26 26 27
18 17 18 18 18 17 17 17 18 19 20 21 22 22 22 22 22 22 23 23 24 24 25 25 25 26 27 27 26 27 27 27 27 27 27 27 27 27 27 27 27 26 27 27
16 16 16 17 17 16 16 17 17 17 19 19 20 21 22 22 22 23 23 22 23 24 24 24 25 25 25 25 26 26 27 26 26 26 26 26 27 28 28 28 27 27 27 28
15 15 15 16 16 15 15 16 16 18 18 19 20 21 22 22 23 23 24 24 24 24 24 24 25 24 25 25 26 27 27 27 27 27 27 28 28 28 29 28 28 29 29 28
Wind_Direction
246 246 246 247 247 245 246 246 248 250 251 252 252 252 252 251 253 255 258 261 263 264 263 262 261 261 263 264 266 266 264 268 270 276 281 285 287 289 285 288 292 285 284 288
247 247 247 247 247 247 247 247 248 250 251 252 252 252 253 252 253 254 257 260 261 263 263 260 259 259 259 261 261 258 259 264 267 272 277 283 283 284 284 282 285 285 283 281
248 248 248 248 249 249 248 248 249 251 253 255 255 254 253 253 253 253 256 258 259 261 261 258 256 257 258 258 257 254 260 265 268 271 276 281 278 280 280 279 282 284 285 284
247 246 246 248 248 249 249 248 249 251 252 255 256 257 255 254 254 254 254 254 255 257 258 256 254 253 256 257 256 258 264 269 269 271 277 277 275 276 280 284 286 285 285 285
248 247 247 247 248 248 248 249 250 253 254 254 255 255 256 255 254 253 253 253 253 255 256 255 254 252 254 256 256 257 262 266 268 270 273 274 273 273 275 279 282 283 283 284
249 249 247 247 247 247 247 248 251 253 255 255 255 255 256 256 254 252 252 252 253 253 254 253 254 253 253 253 256 258 260 262 265 267 270 273 274 273 274 278 281 282 283 283
250 249 247 245 246 247 247 249 251 253 254 257 257 257 255 257 255 254 252 251 252 252 251 253 254 254 251 253 256 257 257 259 262 265 268 270 270 272 273 276 278 281 282 282
251 250 249 247 246 247 248 248 248 251 254 258 258 257 258 258 257 255 252 251 251 250 250 251 251 252 251 252 256 255 257 259 261 263 265 267 269 271 271 273 277 279 280 280
249 249 251 250 248 248 249 248 248 251 254 255 258 260 261 259 257 256 254 252 251 249 248 250 250 250 250 251 253 256 259 261 262 262 262 266 267 269 269 271 274 278 279 280
250 251 252 252 252 251 250 249 248 250 253 255 259 261 260 261 260 257 254 253 250 247 247 248 249 250 248 249 253 256 258 261 262 262 261 263 266 268 268 268 273 275 277 278
249 251 253 253 252 253 251 250 249 250 251 252 258 261 262 263 260 257 254 251 248 245 244 245 247 248 247 250 253 256 258 260 262 262 260 261 264 266 267 269 272 275 275 274
247 249 253 254 254 252 251 251 250 250 253 253 256 260 261 262 259 254 252 248 245 244 243 245 247 248 250 251 253 256 258 259 260 260 260 263 264 264 266 269 270 272 273 272
246 246 252 256 258 255 253 251 250 250 253 254 255 259 261 258 255 251 249 247 244 243 244 247 247 249 251 252 253 255 259 259 258 259 260 263 265 265 266 267 269 270 272 273
246 247 249 253 255 258 257 254 252 253 255 255 255 258 258 254 251 249 246 244 243 243 244 246 248 249 250 252 254 254 257 258 258 258 260 264 264 265 266 268 269 270 273 275
249 251 254 256 258 259 259 256 254 254 255 255 255 253 253 251 249 247 245 244 243 244 243 245 248 249 251 253 254 254 254 255 256 258 260 263 264 265 266 267 269 270 273 274
253 254 257 259 259 259 258 258 256 254 255 254 252 250 250 251 249 247 246 245 244 246 245 245 248 250 252 254 254 255 255 255 256 257 259 262 263 263 265 265 267 269 271 270
256 258 259 261 261 260 258 258 257 254 254 251 251 252 249 249 250 249 247 247 247 247 248 248 248 250 252 253 254 254 256 257 257 257 259 260 261 263 264 264 266 268 268 267
260 261 264 266 266 263 262 261 258 255 253 251 251 248 246 248 250 249 248 248 249 250 249 250 248 249 251 253 255 255 256 259 259 258 259 259 259 261 263 264 264 266 267 268
264 265 265 267 267 268 265 263 259 255 252 251 251 247 247 248 249 249 249 248 247 247 248 250 250 250 250 252 255 255 257 258 258 258 260 263 261 261 263 263 264 266 268 268
267 266 267 268 268 268 267 264 260 259 257 255 254 247 246 245 248 248 248 246 247 247 248 250 251 251 251 252 254 255 255 257 259 259 260 262 261 263 262 262 264 267 269 269
270 269 268 266 267 268 268 267 262 259 258 255 254 249 247 245 245 246 246 246 247 249 251 252 253 252 251 252 254 254 255 257 259 260 260 261 262 262 262 263 265 266 268 268
268 270 269 268 269 268 268 265 260 259 256 255 253 250 248 247 247 248 246 246 247 249 250 251 251 252 253 254 256 255 255 257 257 259 260 261 260 261 262 262 263 266 268 268
265 266 265 265 266 270 268 265 262 260 257 254 251 250 251 249 248 248 248 247 247 248 250 250 250 251 252 254 255 255 256 257 258 259 260 261 259 258 260 262 264 265 267 268
269 267 265 265 265 269 267 262 261 260 257 253 248 247 249 248 247 248 249 250 250 250 253 252 252 251 252 253 254 255 256 257 258 259 260 259 258 258 260 263 263 264 266 268
272 271 269 268 268 265 266 262 258 257 256 253 249 250 251 250 249 249 249 249 251 253 255 256 253 252 253 254 254 254 256 256 258 259 260 259 259 261 262 262 263 264 267 269
276 273 271 272 271 269 266 264 262 260 260 256 254 254 255 254 253 253 252 251 253 254 256 257 255 253 252 252 255 255 255 257 258 259 260 261 261 264 264 264 265 266 268 270
Height
5847 5850 5852 5854 5855 5857 5858 5860 5861 5862 5863 5864 5865 5867 5868 5869 5870 5871 5872 5873 5873 5874 5874 5874 5874 5875 5874 5874 5873 5873 5873 5873 5872 5872 5871 5870 5870 5869 5867 5866 5866 5865 5864 5863
5842 5844 5846 5847 5848 5850 5852 5854 5855 5856 5857 5858 5859 5861 5863 5864 5865 5866 5867 5868 5868 5869 5870 5870 5870 5870 5870 5870 5869 5869 5870 5870 5870 5869 5869 5868 5867 5866 5865 5864 5863 5863 5862 5861
5836 5839 5839 5840 5842 5843 5846 5848 5849 5850 5851 5852 5853 5855 5857 5858 5859 5861 5862 5863 5864 5864 5865 5865 5866 5866 5866 5866 5866 5865 5866 5866 5866 5866 5866 5865 5864 5863 5861 5860 5861 5860 5860 5859
5828 5830 5832 5833 5835 5837 5839 5841 5842 5843 5845 5846 5848 5849 5851 5851 5853 5855 5856 5857 5858 5859 5860 5860 5861 5861 5862 5862 5862 5863 5863 5863 5863 5863 5862 5862 5861 5861 5859 5858 5858 5857 5857 5856
5821 5823 5825 5827 5829 5831 5833 5834 5835 5836 5838 5840 5841 5842 5845 5845 5846 5848 5850 5851 5852 5854 5855 5855 5856 5856 5857 5858 5858 5859 5859 5859 5859 5859 5859 5859 5858 5857 5857 5856 5855 5854 5854 5853
5814 5816 5818 5820 5822 5823 5825 5827 5828 5829 5831 5832 5835 5836 5838 5838 5839 5842 5844 5845 5846 5848 5849 5850 5850 5851 5852 5853 5854 5854 5855 5855 5855 5855 5855 5855 5854 5854 5853 5852 5852 5851 5850 5850
5807 5808 5810 5813 5814 5816 5818 5821 5823 5824 5825 5827 5828 5828 5830 5831 5833 5835 5837 5838 5840 5841 5842 5844 5844 5845 5847 5848 5849 5849 5850 5850 5851 5851 5851 5850 5850 5849 5849 5849 5848 5848 5847 5846
5801 5803 5803 5805 5808 5810 5812 5815 5818 5820 5821 5822 5820 5820 5822 5824 5825 5826 5829 5831 5832 5834 5835 5837 5838 5839 5841 5842 5843 5843 5844 5845 5845 5846 5846 5846 5846 5845 5845 5844 5844 5843 5843 5842
5794 5797 5797 5799 5800 5803 5804 5807 5810 5811 5812 5813 5813 5812 5814 5815 5817 5819 5821 5823 5824 5826 5828 5830 5832 5833 5834 5836 5837 5838 5839 5840 5840 5840 5840 5841 5841 5840 5840 5840 5839 5839 5838 5837
5787 5789 5791 5792 5793 5795 5797 5799 5801 5802 5804 5805 5806 5806 5807 5807 5809 5811 5812 5814 5816 5818 5820 5822 5824 5826 5828 5830 5831 5832 5833 5833 5834 5834 5834 5835 5835 5835 5834 5834 5834 5833 5833 5832
5780 5782 5784 5785 5786 5787 5789 5791 5792 5795 5796 5798 5800 5802 5799 5800 5801 5803 5805 5806 5808 5811 5813 5815 5817 5819 5821 5823 5824 5825 5826 5827 5827 5828 5829 5829 5829 5828 5828 5828 5828 5828 5827 5826
5773 5775 5777 5778 5779 5780 5782 5783 5785 5787 5787 5789 5791 5794 5791 5792 5793 5795 5797 5798 5800 5803 5805 5808 5810 5812 5814 5815 5817 5818 5819 5820 5820 5821 5822 5822 5822 5822 5822 5822 5822 5821 5821 5820
5766 5768 5770 5771 5773 5773 5773 5775 5776 5778 5779 5780 5783 5786 5784 5785 5786 5787 5789 5791 5793 5795 5798 5800 5803 5805 5807 5808 5809 5811 5811 5813 5813 5814 5814 5815 5815 5815 5815 5815 5815 5815 5814 5814
5760 5762 5764 5766 5766 5765 5766 5767 5769 5770 5771 5772 5774 5776 5776 5777 5778 5780 5782 5783 5786 5788 5790 5793 5795 5797 5799 5800 5802 5803 5804 5805 5806 5806 5807 5808 5808 5808 5808 5808 5808 5807 5807 5807
5754 5756 5757 5757 5758 5758 5759 5760 5761 5762 5763 5765 5766 5767 5768 5769 5771 5773 5775 5777 5779 5781 5783 5785 5787 5789 5791 5793 5794 5795 5796 5797 5798 5799 5799 5800 5800 5800 5801 5801 5800 5800 5800 5799
5748 5749 5750 5751 5751 5751 5751 5753 5753 5754 5755 5756 5757 5759 5761 5761 5763 5765 5767 5769 5772 5774 5776 5778 5779 5781 5783 5785 5786 5787 5788 5789 5790 5791 5791 5792 5792 5793 5793 5793 5793 5793 5792 5792
5742 5743 5744 5744 5744 5744 5744 5746 5746 5746 5747 5749 5749 5752 5753 5755 5756 5758 5760 5762 5764 5766 5768 5770 5772 5773 5775 5776 5778 5779 5780 5781 5782 5783 5783 5784 5784 5785 5785 5785 5786 5785 5785 5785
5736 5737 5737 5737 5738 5737 5740 5738 5738 5739 5740 5741 5742 5743 5746 5748 5749 5751 5752 5754 5756 5758 5760 5762 5763 5765 5767 5768 5769 5771 5772 5773 5774 5775 5775 5776 5776 5777 5777 5778 5778 5778 5778 5778
5730 5731 5731 5731 5730 5730 5731 5731 5731 5732 5733 5734 5735 5736 5738 5740 5742 5743 5745 5747 5749 5751 5752 5754 5756 5757 5759 5760 5761 5762 5764 5765 5766 5767 5767 5768 5768 5769 5769 5770 5770 5770 5770 5770
5724 5724 5725 5724 5724 5723 5725 5724 5724 5726 5726 5727 5728 5729 5731 5733 5735 5737 5738 5740 5742 5743 5745 5747 5748 5749 5751 5752 5753 5755 5756 5757 5758 5759 5759 5760 5761 5761 5761 5762 5762 5762 5762 5762
5719 5718 5718 5718 5717 5716 5717 5716 5718 5720 5720 5720 5721 5722 5724 5725 5728 5730 5731 5733 5735 5736 5738 5739 5740 5742 5743 5744 5746 5747 5748 5749 5749 5750 5751 5752 5752 5753 5754 5754 5754 5754 5754 5754
5713 5712 5712 5711 5711 5712 5709 5709 5711 5711 5712 5713 5714 5715 5717 5718 5720 5722 5723 5725 5727 5729 5730 5731 5733 5734 5735 5736 5737 5738 5739 5740 5741 5741 5742 5743 5744 5745 5745 5746 5746 5746 5746 5746
5707 5707 5706 5706 5706 5704 5702 5702 5702 5703 5704 5706 5707 5708 5710 5712 5714 5715 5716 5718 5719 5721 5722 5723 5725 5726 5727 5728 5729 5730 5731 5731 5732 5733 5734 5735 5735 5736 5737 5737 5738 5738 5738 5738
5701 5701 5700 5699 5699 5697 5696 5696 5696 5697 5697 5699 5700 5702 5703 5705 5707 5708 5710 5711 5712 5714 5715 5715 5717 5718 5719 5720 5721 5722 5722 5723 5724 5725 5726 5726 5727 5728 5729 5729 5730 5730 5730 5729
5696 5695 5695 5694 5693 5692 5691 5690 5690 5691 5691 5692 5693 5695 5697 5698 5700 5701 5702 5703 5705 5706 5707 5708 5709 5710 5711 5712 5713 5714 5714 5715 5717 5718 5718 5719 5719 5720 5720 5721 5721 5721 5721 5720
5691 5691 5690 5688 5688 5687 5686 5686 5685 5686 5686 5686 5687 5688 5690 5691 5692 5693 5695 5696 5697 5698 5699 5699 5700 5701 5703 5704 5705 5705 5706 5707 5708 5709 5710 5711 5711 5711 5712 5712 5712 5712 5712 5711